Location: ??????????
(44.2167°N, 135.5333°E)
Time: 15:20:56
(UTC+00:00)

ATLAS 2AS CENTAUR R/B - Pass Details

Date: 15 June 2025
Orbit: 1040 x 1170 km, 63.7° (Epoch: 15 July)

Event Time Altitude Azimuth Distance (km) Brightness Sun altitude
Exits shadow 13:44:06 24° 123° (ESE) 2,108 3.8 -20.3°
Maximum altitude 13:45:05 25° 110° (ESE) 2,068 3.9 -20.4°
Drops below altitude 10° 13:50:35 10° 58° (ENE) 2,953 5.2 -20.7°
Sets 13:53:41 0° 46° (NE) 3,892 6.0 -20.8°
